This demonstration page uses our WeatherBlox Daily Observations layout. Learn more.

Left ArrowRight Arrow

Hourly Observations for May 3, 2015

Temp ( °F °C ) Dew Point ( °F °C ) Humidity (%) Winds ( mph kmh ) Pressure ( in mb ) Visibility ( mi km ) Precip ( " mm )
12:51 am 00:51 Partly Cloudy 71 21.7 37 2.8 29 29 S 5 7 29.75 1008 10 16 0.00 0.00
1:51 am 01:51 Mostly Cloudy 68 20 35 1.7 30 30 VRB 6 9 29.77 1008 10 16 0.00 0.00
2:51 am 02:51 Partly Cloudy 70 21.1 36 2.2 29 29 N 9 15 29.76 1008 10 16 0.00 0.00
3:51 am 03:51 Clear 70 21.1 38 3.3 31 31 NNW 8 13 29.75 1008 10 16 0.00 0.00
4:51 am 04:51 Mostly Clear 67 19.4 38 3.3 35 35 W 6 9 29.77 1008 10 16 0.00 0.00
5:51 am 05:51 Partly Cloudy 65 18.3 39 3.9 39 39 W 3 6 29.80 1009 10 16 0.00 0.00
6:51 am 06:51 Sunny 71 21.7 41 5 34 34 NNW 6 9 29.80 1009 10 16 0.00 0.00
7:51 am 07:51 Sunny 74 23.3 43 6.1 33 33 W 12 19 29.82 1010 10 16 0.00 0.00
8:51 am 08:51 Sunny 77 25 42 5.6 29 29 WNW 9 15 29.82 1010 10 16 0.00 0.00
9:51 am 09:51 Sunny 80 26.7 40 4.4 24 24 WNW 8 13 29.81 1010 10 16 0.00 0.00
10:51 am 10:51 Sunny 83 28.3 39 3.9 21 21 W 9 15 29.78 1009 10 16 0.00 0.00
11:51 am 11:51 Sunny 85 29.4 38 3.3 19 19 undefined N/A 29.75 1008 10 16 0.00 0.00
12:51 pm 12:51 Sunny 84 28.9 37 2.8 19 19 VRB 5 7 29.73 1007 10 16 0.00 0.00
1:51 pm 13:51 Mostly Sunny 84 28.9 37 2.8 19 19 VRB 6 9 29.72 1006 10 16 0.00 0.00
2:51 pm 14:51 Mostly Sunny 87 30.6 36 2.2 16 16 VRB 5 7 29.67 1005 10 16 0.00 0.00
3:51 pm 15:51 Mostly Sunny 88 31.1 33 0.6 14 14 SSW 13 20 29.64 1004 10 16 0.00 0.00
4:51 pm 16:51 Sunny 88 31.1 25 -3.9 10 10 SSW 17 28 29.63 1003 10 16 0.00 0.00
5:51 pm 17:51 Sunny 85 29.4 34 1.1 16 16 WNW 10 17 29.64 1004 10 16 0.00 0.00
6:51 pm 18:51 Sunny 81 27.2 35 1.7 19 19 NNW 7 11 29.64 1004 10 16 0.00 0.00
7:51 pm 19:51 Clear 76 24.4 35 1.7 23 23 WNW 10 17 29.66 1004 10 16 0.00 0.00
8:51 pm 20:51 Clear 73 22.8 39 3.9 29 29 W 7 11 29.67 1005 10 16 0.00 0.00
9:51 pm 21:51 Clear 71 21.7 39 3.9 31 31 N 6 9 29.68 1005 10 16 0.00 0.00
10:51 pm 22:51 Partly Cloudy 73 22.8 37 2.8 27 27 NW 8 13 29.68 1005 10 16 0.00 0.00
11:51 pm 23:51 Mostly Clear 72 22.2 36 2.2 27 27 NNW 8 13 29.68 1005 10 16 0.00 0.00

Powered by AerisWeather